When you browse on this site, cookies collect data to enhance your experience and personalize the content and advertising you see.
Visit our Privacy Policy to learn more. By continuing to use the site, you agree to this use of cookies and data.
  • In Hungary
  • List of Countries
  • For 7 days
  • Water Temperature
  • Satellite Maps
  • Weather Map
  • News
  • Weather Widgets
  • user-avatar
    Login

    Hourly Weather Dombås

    Today, 20 February, Wednesday

    Time Temperature Precipitation Wind Pressure Humidity
    00:00 -7°C° 0 mm 5 mps 679 mmHg 89%
    01:00 -8°C° 0 mm 4 mps 680 mmHg 89%
    02:00 -8°C° 0 mm 4 mps 680 mmHg 90%
    03:00 -8°C° 0 mm 3 mps 681 mmHg 90%
    04:00 -8°C° 0 mm 3 mps 681 mmHg 91%
    05:00 -8°C° 0 mm 2 mps 682 mmHg 91%
    06:00 -9°C° 0 mm 2 mps 682 mmHg 92%
    07:00 -12°C° 0 mm 2 mps 682 mmHg 92%
    08:00 -9°C° 0 mm 1 mps 682 mmHg 91%
    09:00 -9°C° 0 mm 1 mps 683 mmHg 90%
    10:00 -9°C° 0 mm 0 mps 683 mmHg 89%
    11:00 -8°C° 0 mm 1 mps 683 mmHg 88%
    12:00 -7°C° 0 mm 1 mps 684 mmHg 88%
    13:00 -4°C° 0 mm 1 mps 684 mmHg 87%
    14:00 -7°C° 0 mm 2 mps 684 mmHg 88%
    15:00 -7°C° 0 mm 2 mps 684 mmHg 89%
    16:00 -8°C° 0 mm 2 mps 684 mmHg 91%
    17:00 -7°C° 0 mm 2 mps 684 mmHg 92%
    18:00 -7°C° 0 mm 2 mps 684 mmHg 93%
    19:00 -7°C° 0 mm 2 mps 684 mmHg 94%
    20:00 -6°C° 0.2 mm 2 mps 683 mmHg 95%
    21:00 -7°C° 0.2 mm 3 mps 683 mmHg 96%
    22:00 -7°C° 0.2 mm 3 mps 683 mmHg 96%
    23:00 -7°C° 0.6 mm 3 mps 683 mmHg 96%

    Tomorrow, 21 February, Thursday

    Time Temperature Precipitation Wind Pressure Humidity
    00:00 -7°C° 0.6 mm 3 mps 682 mmHg 96%
    01:00 -7°C° 0.6 mm 3 mps 682 mmHg 97%
    02:00 -7°C° 0.6 mm 3 mps 682 mmHg 96%
    03:00 -7°C° 0.6 mm 3 mps 682 mmHg 96%
    04:00 -7°C° 0.6 mm 3 mps 682 mmHg 96%
    05:00 -6°C° 0.4 mm 2 mps 682 mmHg 95%
    06:00 -5°C° 0.4 mm 2 mps 682 mmHg 95%
    07:00 -5°C° 0.4 mm 2 mps 682 mmHg 94%
    08:00 -4°C° 0.1 mm 2 mps 683 mmHg 94%
    09:00 -4°C° 0.1 mm 2 mps 684 mmHg 93%
    10:00 -1°C° 0.1 mm 1 mps 684 mmHg 92%
    11:00 0°C° 0.2 mm 1 mps 685 mmHg 93%
    12:00 +1°C° 0.2 mm 1 mps 686 mmHg 93%
    13:00 +2°C° 0.2 mm 1 mps 687 mmHg 94%
    14:00 +2°C° 0.1 mm 1 mps 688 mmHg 93%
    15:00 +2°C° 0.1 mm 1 mps 688 mmHg 93%
    16:00 +2°C° 0.1 mm 1 mps 689 mmHg 92%
    17:00 +1°C° 0 mm 1 mps 690 mmHg 92%
    18:00 +1°C° 0 mm 1 mps 691 mmHg 92%
    19:00 0°C° 0 mm 1 mps 691 mmHg 92%
    20:00 -1°C° 0 mm 1 mps 692 mmHg 91%
    21:00 -2°C° 0 mm 1 mps 693 mmHg 91%
    22:00 -2°C° 0 mm 1 mps 693 mmHg 91%
    23:00 -2°C° 0 mm 1 mps 694 mmHg 91%

    Day after tomorrow, 22 February, Friday

    Time Temperature Precipitation Wind Pressure Humidity
    00:00 -3°C° 0 mm 1 mps 694 mmHg 91%
    01:00 -3°C° 0 mm 1 mps 695 mmHg 91%
    02:00 -3°C° 0 mm 1 mps 695 mmHg 90%
    03:00 -3°C° 0 mm 1 mps 696 mmHg 90%
    04:00 -3°C° 0 mm 1 mps 696 mmHg 89%
    05:00 -2°C° 0.1 mm 1 mps 696 mmHg 88%
    06:00 0°C° 0.1 mm 1 mps 697 mmHg 88%
    07:00 -1°C° 0.1 mm 2 mps 698 mmHg 87%
    08:00 -1°C° 0 mm 2 mps 698 mmHg 87%
    09:00 +1°C° 0 mm 2 mps 698 mmHg 86%
    10:00 +1°C° 0 mm 2 mps 699 mmHg 86%
    11:00 +1°C° 0 mm 2 mps 699 mmHg 89%
    12:00 +2°C° 0 mm 2 mps 699 mmHg 91%
    13:00 +2°C° 0 mm 2 mps 699 mmHg 93%
    14:00 +2°C° 0 mm 2 mps 699 mmHg 94%
    15:00 +2°C° 0 mm 2 mps 699 mmHg 94%
    16:00 +2°C° 0 mm 2 mps 699 mmHg 94%
    17:00 +2°C° 0 mm 2 mps 699 mmHg 94%
    18:00 +2°C° 0 mm 2 mps 699 mmHg 94%
    19:00 +2°C° 0 mm 2 mps 699 mmHg 95%
    20:00 +2°C° 0 mm 2 mps 699 mmHg 94%
    21:00 +2°C° 0 mm 2 mps 699 mmHg 94%
    22:00 +2°C° 0 mm 2 mps 699 mmHg 94%
    23:00 +2°C° 0 mm 2 mps 699 mmHg 93%

    23 February, Saturday

    Time Temperature Precipitation Wind Pressure Humidity
    00:00 +1°C° 0 mm 3 mps 699 mmHg 92%
    01:00 +1°C° 0 mm 3 mps 699 mmHg 91%
    02:00 +1°C° 0 mm 3 mps 699 mmHg 90%
    03:00 +1°C° 0 mm 3 mps 699 mmHg 90%
    04:00 +1°C° 0 mm 3 mps 699 mmHg 90%
    05:00 +2°C° 0 mm 2 mps 699 mmHg 90%
    06:00 +2°C° 0 mm 2 mps 699 mmHg 90%
    07:00 +2°C° 0 mm 2 mps 699 mmHg 89%
    08:00 +2°C° 0 mm 2 mps 700 mmHg 89%
    09:00 +3°C° 0 mm 2 mps 700 mmHg 89%
    10:00 +3°C° 0 mm 2 mps 700 mmHg 88%
    11:00 +4°C° 0 mm 2 mps 700 mmHg 92%
    12:00 +4°C° 0 mm 2 mps 700 mmHg 95%
    13:00 +4°C° 0 mm 2 mps 700 mmHg 99%
    14:00 +4°C° 0 mm 2 mps 699 mmHg 94%
    15:00 +4°C° 0 mm 2 mps 699 mmHg 89%
    16:00 +5°C° 0 mm 1 mps 699 mmHg 84%
    17:00 +5°C° 0 mm 1 mps 699 mmHg 82%
    18:00 +3°C° 0 mm 2 mps 699 mmHg 80%
    19:00 +3°C° 0 mm 2 mps 698 mmHg 78%
    20:00 +3°C° 0 mm 2 mps 698 mmHg 77%
    21:00 +3°C° 0 mm 2 mps 698 mmHg 76%
    22:00 +3°C° 0 mm 2 mps 698 mmHg 76%
    23:00 +3°C° 0 mm 2 mps 698 mmHg 75%

    24 February, Sunday

    Time Temperature Precipitation Wind Pressure Humidity
    00:00 +3°C° 0 mm 2 mps 697 mmHg 74%
    01:00 +3°C° 0 mm 2 mps 697 mmHg 73%
    02:00 +2°C° 0 mm 2 mps 697 mmHg 74%
    03:00 +2°C° 0 mm 2 mps 697 mmHg 76%
    04:00 +1°C° 0 mm 2 mps 697 mmHg 77%
    05:00 +1°C° 0 mm 2 mps 697 mmHg 81%
    06:00 +2°C° 0 mm 2 mps 697 mmHg 84%
    07:00 +2°C° 0 mm 2 mps 697 mmHg 88%
    08:00 +2°C° 0.1 mm 2 mps 698 mmHg 89%
    09:00 +3°C° 0.1 mm 2 mps 698 mmHg 90%
    10:00 +3°C° 0.1 mm 2 mps 699 mmHg 91%
    11:00 +3°C° 0.1 mm 2 mps 699 mmHg 91%
    12:00 +3°C° 0.1 mm 2 mps 700 mmHg 92%
    13:00 +2°C° 0.1 mm 3 mps 700 mmHg 92%
    14:00 +1°C° 0 mm 3 mps 700 mmHg 90%
    15:00 +1°C° 0 mm 3 mps 701 mmHg 88%
    16:00 0°C° 0 mm 3 mps 701 mmHg 87%
    17:00 -2°C° 0 mm 3 mps 701 mmHg 88%
    18:00 -4°C° 0 mm 3 mps 701 mmHg 89%
    19:00 -5°C° 0 mm 3 mps 701 mmHg 91%
    20:00 -5°C° 0 mm 3 mps 702 mmHg 91%
    21:00 -5°C° 0 mm 2 mps 702 mmHg 91%
    22:00 -5°C° 0 mm 2 mps 703 mmHg 90%
    23:00 -5°C° 0 mm 2 mps 703 mmHg 90%

    25 February, Monday

    Time Temperature Precipitation Wind Pressure Humidity
    00:00 -6°C° 0 mm 2 mps 703 mmHg 89%
    01:00 -7°C° 0 mm 3 mps 703 mmHg 88%
    02:00 -7°C° 0 mm 3 mps 703 mmHg 85%
    03:00 -7°C° 0 mm 3 mps 703 mmHg 82%
    04:00 -7°C° 0 mm 3 mps 703 mmHg 78%
    05:00 -7°C° 0 mm 3 mps 703 mmHg 76%
    06:00 -6°C° 0 mm 2 mps 703 mmHg 73%
    07:00 -6°C° 0 mm 2 mps 703 mmHg 70%
    08:00 -6°C° 0 mm 2 mps 703 mmHg 68%
    09:00 -5°C° 0 mm 2 mps 703 mmHg 66%
    10:00 -4°C° 0 mm 2 mps 703 mmHg 65%
    11:00 -3°C° 0 mm 2 mps 703 mmHg 65%
    12:00 -1°C° 0 mm 2 mps 703 mmHg 65%
    13:00 +1°C° 0 mm 2 mps 703 mmHg 65%
    14:00 +1°C° 0 mm 2 mps 702 mmHg 62%
    15:00 -1°C° 0 mm 2 mps 702 mmHg 58%
    16:00 -1°C° 0 mm 2 mps 702 mmHg 54%
    17:00 -2°C° 0 mm 2 mps 701 mmHg 52%
    18:00 -3°C° 0 mm 2 mps 701 mmHg 51%
    19:00 -4°C° 0 mm 2 mps 701 mmHg 49%
    20:00 -4°C° 0 mm 2 mps 701 mmHg 48%
    21:00 -5°C° 0 mm 2 mps 701 mmHg 48%
    22:00 -5°C° 0 mm 2 mps 700 mmHg 47%
    23:00 -5°C° 0 mm 2 mps 700 mmHg 47%
    Show more